Tiempo cada hora Gola Gokarannath

Hoy, 28 Noviembre, Sábado

Tiempo Temperatura Precipitaciones Viento Presión Humedad
00:00 +18°C° 0 mm 2 mps 749 mmHg 40%
01:00 +17°C° 0 mm 2 mps 749 mmHg 42%
02:00 +17°C° 0 mm 2 mps 748 mmHg 43%
03:00 +16°C° 0 mm 2 mps 748 mmHg 45%
04:00 +16°C° 0 mm 2 mps 748 mmHg 47%
05:00 +15°C° 0 mm 2 mps 748 mmHg 49%
06:00 +16°C° 0 mm 2 mps 749 mmHg 48%
07:00 +17°C° 0 mm 2 mps 749 mmHg 46%
08:00 +18°C° 0 mm 2 mps 750 mmHg 44%
09:00 +21°C° 0 mm 2 mps 749 mmHg 38%
10:00 +24°C° 0 mm 2 mps 749 mmHg 33%
11:00 +26°C° 0 mm 2 mps 750 mmHg 26%
12:00 +27°C° 0 mm 3 mps 749 mmHg 25%
13:00 +28°C° 0 mm 3 mps 748 mmHg 23%
14:00 +29°C° 0 mm 3 mps 747 mmHg 22%
15:00 +27°C° 0 mm 3 mps 747 mmHg 24%
16:00 +25°C° 0 mm 2 mps 747 mmHg 27%
17:00 +23°C° 0 mm 1 mps 747 mmHg 30%
18:00 +22°C° 0 mm 1 mps 747 mmHg 31%
19:00 +21°C° 0 mm 1 mps 748 mmHg 32%
20:00 +21°C° 0 mm 1 mps 748 mmHg 33%
21:00 +20°C° 0 mm 1 mps 748 mmHg 34%
22:00 +19°C° 0 mm 1 mps 748 mmHg 35%
23:00 +19°C° 0 mm 1 mps 748 mmHg 36%

Mañana, 29 Noviembre, Domingo

Tiempo Temperatura Precipitaciones Viento Presión Humedad
00:00 +18°C° 0 mm 1 mps 747 mmHg 38%
01:00 +16°C° 0 mm 1 mps 747 mmHg 40%
02:00 +16°C° 0 mm 1 mps 747 mmHg 42%
03:00 +15°C° 0 mm 1 mps 747 mmHg 43%
04:00 +15°C° 0 mm 1 mps 747 mmHg 44%
05:00 +15°C° 0 mm 1 mps 748 mmHg 45%
06:00 +16°C° 0 mm 1 mps 748 mmHg 44%
07:00 +18°C° 0 mm 1 mps 749 mmHg 42%
08:00 +19°C° 0 mm 1 mps 750 mmHg 41%
09:00 +20°C° 0 mm 2 mps 749 mmHg 36%
10:00 +23°C° 0 mm 2 mps 749 mmHg 31%
11:00 +26°C° 0 mm 2 mps 749 mmHg 26%
12:00 +26°C° 0 mm 2 mps 748 mmHg 24%
13:00 +27°C° 0 mm 2 mps 748 mmHg 22%
14:00 +28°C° 0 mm 2 mps 747 mmHg 20%
15:00 +26°C° 0 mm 2 mps 747 mmHg 22%
16:00 +24°C° 0 mm 2 mps 747 mmHg 25%
17:00 +21°C° 0 mm 2 mps 747 mmHg 28%
18:00 +21°C° 0 mm 2 mps 747 mmHg 28%
19:00 +20°C° 0 mm 2 mps 747 mmHg 29%
20:00 +19°C° 0 mm 2 mps 747 mmHg 30%
21:00 +19°C° 0 mm 1 mps 747 mmHg 31%
22:00 +19°C° 0 mm 1 mps 748 mmHg 33%
23:00 +18°C° 0 mm 1 mps 748 mmHg 34%

Pasado mañana, 30 Noviembre, Lunes

Tiempo Temperatura Precipitaciones Viento Presión Humedad
00:00 +18°C° 0 mm 1 mps 747 mmHg 35%
01:00 +16°C° 0 mm 1 mps 747 mmHg 37%
02:00 +16°C° 0 mm 1 mps 747 mmHg 38%
03:00 +15°C° 0 mm 1 mps 747 mmHg 40%
04:00 +15°C° 0 mm 1 mps 746 mmHg 42%
05:00 +15°C° 0 mm 1 mps 746 mmHg 43%
06:00 +16°C° 0 mm 1 mps 747 mmHg 43%
07:00 +16°C° 0 mm 0 mps 748 mmHg 42%
08:00 +17°C° 0 mm 0 mps 748 mmHg 41%
09:00 +21°C° 0 mm 1 mps 748 mmHg 36%
10:00 +23°C° 0 mm 1 mps 748 mmHg 31%
11:00 +26°C° 0 mm 1 mps 748 mmHg 26%
12:00 +26°C° 0 mm 1 mps 747 mmHg 23%
13:00 +27°C° 0 mm 1 mps 747 mmHg 21%
14:00 +28°C° 0 mm 2 mps 746 mmHg 19%
15:00 +26°C° 0 mm 1 mps 746 mmHg 21%
16:00 +24°C° 0 mm 1 mps 746 mmHg 23%
17:00 +22°C° 0 mm 1 mps 746 mmHg 26%
18:00 +22°C° 0 mm 1 mps 747 mmHg 27%
19:00 +19°C° 0 mm 0 mps 748 mmHg 28%
20:00 +18°C° 0 mm 0 mps 748 mmHg 29%
21:00 +18°C° 0 mm 0 mps 748 mmHg 30%
22:00 +17°C° 0 mm 0 mps 748 mmHg 32%
23:00 +19°C° 0 mm 1 mps 748 mmHg 33%

1 Diciembre, Martes

Tiempo Temperatura Precipitaciones Viento Presión Humedad
00:00 +18°C° 0 mm 1 mps 748 mmHg 36%
01:00 +18°C° 0 mm 1 mps 747 mmHg 38%
02:00 +16°C° 0 mm 1 mps 747 mmHg 41%
03:00 +16°C° 0 mm 1 mps 747 mmHg 43%
04:00 +15°C° 0 mm 0 mps 747 mmHg 44%
05:00 +14°C° 0 mm 0 mps 747 mmHg 46%
06:00 +15°C° 0 mm 0 mps 748 mmHg 44%
07:00 +17°C° 0 mm 0 mps 748 mmHg 43%
08:00 +20°C° 0 mm 1 mps 749 mmHg 41%
09:00 +20°C° 0 mm 0 mps 749 mmHg 36%
10:00 +22°C° 0 mm 0 mps 749 mmHg 31%
11:00 +25°C° 0 mm 0 mps 749 mmHg 25%
12:00 +27°C° 0 mm 1 mps 748 mmHg 23%
13:00 +28°C° 0 mm 1 mps 747 mmHg 21%
14:00 +28°C° 0 mm 1 mps 747 mmHg 20%
15:00 +26°C° 0 mm 1 mps 746 mmHg 22%
16:00 +25°C° 0 mm 1 mps 746 mmHg 24%
17:00 +21°C° 0 mm 0 mps 746 mmHg 27%
18:00 +20°C° 0 mm 0 mps 747 mmHg 28%
19:00 +21°C° 0 mm 1 mps 747 mmHg 29%
20:00 +21°C° 0 mm 1 mps 747 mmHg 30%
21:00 +20°C° 0 mm 1 mps 747 mmHg 32%
22:00 +20°C° 0 mm 1 mps 747 mmHg 35%
23:00 +19°C° 0 mm 1 mps 747 mmHg 37%

2 Diciembre, Miércoles

Tiempo Temperatura Precipitaciones Viento Presión Humedad
00:00 +19°C° 0 mm 1 mps 747 mmHg 39%
01:00 +16°C° 0 mm 0 mps 747 mmHg 41%
02:00 +16°C° 0 mm 0 mps 746 mmHg 43%
03:00 +15°C° 0 mm 0 mps 746 mmHg 45%
04:00 +15°C° 0 mm 0 mps 746 mmHg 46%
05:00 +15°C° 0 mm 0 mps 746 mmHg 48%
06:00 +16°C° 0 mm 0 mps 747 mmHg 46%
07:00 +17°C° 0 mm 0 mps 747 mmHg 44%
08:00 +18°C° 0 mm 0 mps 747 mmHg 42%
09:00 +20°C° 0 mm 0 mps 747 mmHg 37%
10:00 +24°C° 0 mm 1 mps 747 mmHg 31%
11:00 +26°C° 0 mm 1 mps 747 mmHg 26%
12:00 +27°C° 0 mm 1 mps 746 mmHg 24%
13:00 +28°C° 0 mm 2 mps 745 mmHg 23%
14:00 +28°C° 0 mm 2 mps 745 mmHg 21%
15:00 +27°C° 0 mm 2 mps 745 mmHg 24%
16:00 +25°C° 0 mm 2 mps 744 mmHg 26%
17:00 +23°C° 0 mm 1 mps 744 mmHg 29%
18:00 +22°C° 0 mm 1 mps 745 mmHg 31%
19:00 +21°C° 0 mm 1 mps 745 mmHg 32%
20:00 +18°C° 0 mm 0 mps 745 mmHg 34%
21:00 +18°C° 0 mm 0 mps 745 mmHg 35%
22:00 +17°C° 0 mm 0 mps 745 mmHg 37%
23:00 +17°C° 0 mm 0 mps 745 mmHg 39%

3 Diciembre, Jueves

Tiempo Temperatura Precipitaciones Viento Presión Humedad
00:00 +16°C° 0 mm 0 mps 745 mmHg 40%
01:00 +16°C° 0 mm 0 mps 744 mmHg 41%
02:00 +15°C° 0 mm 0 mps 744 mmHg 43%
03:00 +16°C° 0 mm 1 mps 744 mmHg 44%
04:00 +15°C° 0 mm 1 mps 744 mmHg 45%
05:00 +15°C° 0 mm 1 mps 745 mmHg 47%
06:00 +16°C° 0 mm 1 mps 745 mmHg 45%
07:00 +18°C° 0 mm 1 mps 746 mmHg 44%
08:00 +19°C° 0 mm 1 mps 746 mmHg 42%
09:00 +21°C° 0 mm 1 mps 746 mmHg 37%
10:00 +24°C° 0 mm 1 mps 746 mmHg 31%
11:00 +26°C° 0 mm 1 mps 746 mmHg 26%
12:00 +26°C° 0 mm 1 mps 746 mmHg 24%
13:00 +27°C° 0 mm 1 mps 745 mmHg 22%
14:00 +28°C° 0 mm 1 mps 744 mmHg 21%
15:00 +26°C° 0 mm 1 mps 744 mmHg 23%
16:00 +22°C° 0 mm 0 mps 745 mmHg 26%
17:00 +20°C° 0 mm 0 mps 745 mmHg 28%
18:00 +20°C° 0 mm 0 mps 745 mmHg 30%
19:00 +19°C° 0 mm 0 mps 745 mmHg 31%
20:00 +21°C° 0 mm 1 mps 746 mmHg 32%
21:00 +20°C° 0 mm 1 mps 746 mmHg 34%
22:00 +19°C° 0 mm 1 mps 746 mmHg 36%
23:00 +18°C° 0 mm 2 mps 746 mmHg 38%
Mostrar más

Necesitamos Su Consentimiento

Meteoprog y nuestros Proveedores de Servicios pueden almacenar y acceder a sus datos personales como cookies, identificadores de dispositivo u otras tecnologías similares de su dispositivo y procesar dichos datos para personalizar contenido y anuncios, además de ofrecer funciones de redes sociales y analizar el tráfico.

  • Almacenar y/o acceder a información en su dispositivo

    Se puede almacenar o acceder a cookies, identificadores de dispositivo u otra información de su dispositivo para los fines anteriormente indicados.

  • Anuncios y contenido personalizados, medición de anuncios y contenido, percepciones del público, y desarrollo de productos

    Los anuncios y el contenido pueden personalizarse en base a su perfil. Se pueden añadir más datos para personalizar mejor los anuncios y contenidos. Se puede medir el rendimiento de los anuncios y contenidos. Se puede obtener la percepción sobre el público que ha visto los anuncios y contenidos. Dichos datos pueden usarse para desarrollar o mejorar la experiencia del usuario, sistemas y software.

Al hacer clic en ‘Estoy De Acuerdo’ usted permitirá el uso de las cookies, identificadores de dispositivo, balizas web u otras tecnologías similares indicadas. Su configuración puede cambiarse desde el navegador de su dispositivo.

Para ciertos fines, los intereses legítimos pueden ser considerados por encima del consentimiento. Puede leer más sobre ello en nuestra Política de Privacidad y Cookies.